User: anonymous
Location: Cincinnati Observatory Center
(39.1389°N, 84.4225°W)
Time: 20:26:13
(UTC-04:00)
Language:

COSMOS 2428 - Orbit

View from above orbital plane
View from above orbital plane
View from above satellite
View from above satellite

Ground track
Ground track

The orbit data is extracted from the following two-line orbital elements,

1 31792U 07029A   14266.77513088  .00000370  00000-0  22615-3 0   224
2 31792 070.9706 342.9749 0009188 322.0218 176.3305 14.12426682373234
Epoch (UTC): 23 September 2014 18:36:11
Eccentricity: 0.0009188
inclination: 70.9706°
perigee height: 844 km
apogee height: 858 km
right ascension of ascending node: 342.9749°
argument of perigee: 322.0218°
revolutions per day: 14.12426682
mean anomaly at epoch: 176.3305°
orbit number at epoch: 37323

The dashed part of the orbit path shows where the satellite is in the earth's shadow,  

DLR